Location: Warszawa
(52.2500°N, 21.0000°E)
Time: 08:52:48
(UTC+01:00)

A-11 Canister half - Visible Passes

Search period start: 26 February 2024 00:00
Search period end: 07 March 2024 00:00
Orbit: 1526 x 1682 km, 47.3° (Epoch: 25 February)

Date Brightness Start Highest point End Pass type
(mag) Time Alt. Az. Time Alt. Az. Time Alt. Az.
26 Feb 10.6 03:50:38 12° SSW 03:50:38 12° SSW 03:51:23 10° S visible
26 Feb 9.7 19:01:17 10° S 19:08:45 27° SE 19:10:35 25° ESE visible
26 Feb 9.6 21:03:10 10° SW 21:08:55 38° SSW 21:08:55 38° SSW visible
27 Feb 9.9 18:39:47 10° S 18:47:06 26° SE 18:50:35 21° ESE visible
27 Feb 9.2 20:41:29 10° SW 20:48:56 48° S 20:48:56 48° S visible
27 Feb 10.7 22:45:36 10° W 22:47:16 17° W 22:47:16 17° W visible
28 Feb 10.0 18:18:17 10° S 18:25:27 25° SE 18:30:31 16° E visible
28 Feb 9.0 20:19:48 10° SW 20:28:51 52° SSE 20:28:51 52° SSE visible
28 Feb 10.3 22:23:52 10° W 22:27:11 25° WSW 22:27:11 25° WSW visible
29 Feb 10.0 17:56:47 10° S 18:03:49 23° SE 18:10:23 11° E visible
29 Feb 9.1 19:58:07 10° SW 20:07:11 51° SSE 20:08:42 47° SE visible
29 Feb 9.9 22:02:08 10° W 22:07:01 35° WSW 22:07:01 35° WSW visible
01 Mar 9.2 19:36:26 10° SW 19:45:30 50° SSE 19:48:28 39° ESE visible
01 Mar 9.5 21:40:24 10° WSW 21:46:47 46° WSW 21:46:47 46° WSW visible
01 Mar 11.0 23:45:04 10° W 23:45:05 10° W 23:45:05 10° W visible
02 Mar 9.2 19:14:46 10° SW 19:23:49 48° SSE 19:28:10 30° E visible
02 Mar 9.1 21:18:40 10° WSW 21:26:28 58° SW 21:26:28 58° SW visible
02 Mar 10.7 23:23:20 10° W 23:24:47 16° W 23:24:47 16° W visible
03 Mar 9.3 18:53:05 10° SW 19:02:07 47° SSE 19:07:48 23° E visible
03 Mar 8.9 20:56:56 10° WSW 21:06:06 66° S 21:06:06 66° S visible
03 Mar 10.4 23:01:35 10° W 23:04:25 22° W 23:04:25 22° W visible
04 Mar 9.4 18:31:26 10° SW 18:40:26 46° SSE 18:47:24 17° E visible
04 Mar 8.8 20:35:12 10° WSW 20:44:36 66° S 20:45:42 62° SE visible
04 Mar 10.1 22:39:51 10° W 22:44:00 29° W 22:44:00 29° W visible
05 Mar 9.5 18:09:46 10° SW 18:18:44 45° SSE 18:26:57 12° E visible
05 Mar 8.9 20:13:28 10° WSW 20:22:54 65° S 20:25:15 51° ESE visible
05 Mar 9.8 22:18:06 10° W 22:23:32 37° WSW 22:23:32 37° WSW visible
06 Mar 9.5 17:48:06 10° SW 17:57:03 44° SSE 18:05:45 10° E visible
06 Mar 9.0 19:51:43 10° WSW 20:01:11 65° S 20:04:45 41° ESE visible
06 Mar 9.5 21:56:22 10° W 22:03:03 46° WSW 22:03:03 46° WSW visible
